Location: Kellogg
(38.0159°N, 90.0546°W)
Time: 08:16:15
(UTC+00:00)

Altair - Pass Details

Date: 18 September 2024
Orbit: 1501 x 1682 km, 47.2° (Epoch: 07 October)

Event Time Altitude Azimuth Distance (km) Brightness Sun altitude
Rises 08:17:11 0° 248° (WSW) 4,825 - -38.5°
Reaches altitude 10° 08:20:17 10° 250° (WSW) 3,862 - -38.0°
Exits shadow 08:29:33 70° 309° (NW) 1,755 7.5 -36.6°
Maximum altitude 08:30:13 72° 335° (NNW) 1,742 7.6 -36.5°
Drops below altitude 10° 08:40:24 10° 59° (ENE) 3,949 10.4 -34.9°
Sets 08:43:37 0° 62° (ENE) 4,937 11.2 -34.4°
